SS4 Caseres 2 (gravel) (12.50 km)

Stage-

Pos # Driver Time Diff Prev Diff 1st
1. 10 FINJ. LATVALA 7:08.1
2. 6 ESPD. SORDO 7:08.4 +0.3 +0.3
3. 12 FINE. LAPPI 7:09.0 +0.6 +0.9
4. 14 NORM. OSTBERG 7:09.3 +0.3 +1.2
5. 4 NORA. MIKKELSEN 7:10.2 +0.9 +2.1
6. 5 BELT. NEUVILLE 7:10.7 +0.5 +2.6
7. 2 ESTO. TÄNAK 7:11.6 +0.9 +3.5
8. 1 FRAS. OGIER 7:11.7 +0.1 +3.6
9. 11 FINJ. HÄNNINEN 7:13.0 +1.3 +4.9
10. 7 GBRK. MEEKE 7:13.4 +0.4 +5.3
11. 3 GBRE. EVANS 7:14.3 +0.9 +6.2
12. 8 FRAS. LEFEBVRE 7:14.6 +0.3 +6.5
13. 32 FINT. SUNINEN 7:20.7 +6.1 +12.6
14. 82 FRAE. CAMILI 7:22.8 +2.1 +14.7
15. 31 CZEJ. KOPECKY 7:29.0 +6.2 +20.9
16. 84 FRAP. LOUBET 7:29.5 +0.5 +21.4
17. 83 NORO. VEIBY 7:31.4 +1.9 +23.3
18. 42 FINJ. NORDGREN 7:36.4 +5.0 +28.3
19. 33 ROUS. TEMPESTINI 7:38.2 +1.8 +30.1
20. 9 AREK. AL QASSIMI 7:40.3 +2.1 +32.2
21. 34 MEXB. GUERRA 7:40.8 +0.5 +32.7
22. 43 GBRJ. ARMSTRONG 7:41.1 +0.3 +33.0
23. 88 CHEJ. TÖDTLI 7:49.7 +8.6 +41.6
24. 45 TURO. AVCIOGLU 7:52.2 +2.5 +44.1
25. 46 GBRR. YATES 7:52.7 +0.5 +44.6
26. 37 POLL. PIENIAZEK 7:56.6 +3.9 +48.5
27. 20 UKRV. GORBAN 7:56.7 +0.1 +48.6
28. 44 ESPC. GARCIA 7:59.7 +3.0 +51.6
29. 62 ESPN. SOLANS 8:02.7 +3.0 +54.6
30. 63 FRAN. CIAMIN 8:05.4 +2.7 +57.3
31. 39 FRAY. BONATO 8:06.6 +1.2 +58.5
32. 65 FRAT. FOLB 8:11.4 +4.8 +1:03.3
33. 89 ECUM. NAVAS 8:11.8 +0.4 +1:03.7
34. 92 ESPJ. PELAEZ 8:12.5 +0.7 +1:04.4
35. 64 DEUJ. TANNERT 8:15.6 +3.1 +1:07.5
36. 21 FRAJ. RAOUX 8:24.5 +8.9 +1:16.4
37. 61 FRAR. ASTIER 8:32.1 +7.6 +1:24.0
38. 90 ESPJ. SOLANS 8:33.9 +1.8 +1:25.8
39. 87 IRLE. BOLAND 8:40.9 +7.0 +1:32.8
40. 93 ESPF. MACIAS 8:43.2 +2.3 +1:35.1
41. 96 SWEM. ANDERSSON 8:47.2 +4.0 +1:39.1
42. 95 ANDM. BESOLI 8:48.9 +1.7 +1:40.8
43. 94 ESPG. SOSA 8:51.9 +3.0 +1:43.8
44. 108 ESPJ. SALINAS 9:00.1 +8.2 +1:52.0
45. 22 GRCJ. SERDERIDIS 9:03.9 +3.8 +1:55.8
46. 100 ESPJ. DOMENECH 9:04.2 +0.3 +1:56.1
47. 104 ESPR. ROZADA 9:09.0 +4.8 +2:00.9
48. 91 ESPJ. FONT 9:09.1 +0.1 +2:01.0
49. 105 ESPJ. BASSAS 9:09.4 +0.3 +2:01.3
50. 106 ESPA. VILA 9:11.5 +2.1 +2:03.4
51. 107 ESPS. FRANCOLI 9:13.5 +2.0 +2:05.4
52. 109 ESPA. SERRATOSA 9:29.4 +15.9 +2:21.3
53. 102 DEUR. KUHN 9:33.8 +4.4 +2:25.7
54. 101 ESPZ. ESTEBAN 9:36.5 +2.7 +2:28.4
55. 112 ESPP. SUAREZ 9:39.4 +2.9 +2:31.3
56. 97 ITAG. TAVELLI 9:42.9 +3.5 +2:34.8
57. 110 ESPM. PARADELL 9:46.7 +3.8 +2:38.6
58. 98 FRAJ. GUIBERT 9:52.1 +5.4 +2:44.0
59. 99 FRAP. GOMEZ 10:30.3 +38.2 +3:22.2
60. 114 ESPE. SANS 11:14.7 +44.4 +4:06.6
61. 66 SWED. RADSTRÖM 12:18.7 +1:04.0 +5:10.6

Overall-

Pos # Driver Time Diff Prev Diff 1st
1. 14 NORM. OSTBERG 43:30.8
2. 4 NORA. MIKKELSEN 43:31.1 +0.3 +0.3
3. 1 FRAS. OGIER 43:37.2 +6.1 +6.4
4. 2 ESTO. TÄNAK 43:39.9 +2.7 +9.1
5. 6 ESPD. SORDO 43:41.6 +1.7 +10.8
6. 7 GBRK. MEEKE 43:41.9 +0.3 +11.1
7. 10 FINJ. LATVALA 43:45.0 +3.1 +14.2
8. 5 BELT. NEUVILLE 43:47.4 +2.4 +16.6
9. 11 FINJ. HÄNNINEN 43:54.3 +6.9 +23.5
10. 3 GBRE. EVANS 44:08.7 +14.4 +37.9
11. 8 FRAS. LEFEBVRE 44:16.0 +7.3 +45.2
12. 12 FINE. LAPPI 44:22.4 +6.4 +51.6
13. 82 FRAE. CAMILI 44:52.0 +29.6 +1:21.2
14. 32 FINT. SUNINEN 45:04.3 +12.3 +1:33.5
15. 83 NORO. VEIBY 45:23.1 +18.8 +1:52.3
16. 84 FRAP. LOUBET 45:54.7 +31.6 +2:23.9
17. 33 ROUS. TEMPESTINI 46:17.6 +22.9 +2:46.8
18. 34 MEXB. GUERRA 46:41.2 +23.6 +3:10.4
19. 31 CZEJ. KOPECKY 46:44.3 +3.1 +3:13.5
20. 9 AREK. AL QASSIMI 46:45.1 +0.8 +3:14.3
21. 88 CHEJ. TÖDTLI 47:12.5 +27.4 +3:41.7
22. 37 POLL. PIENIAZEK 47:20.1 +7.6 +3:49.3
23. 42 FINJ. NORDGREN 47:34.2 +14.1 +4:03.4
24. 45 TURO. AVCIOGLU 47:43.7 +9.5 +4:12.9
25. 20 UKRV. GORBAN 47:48.6 +4.9 +4:17.8
26. 46 GBRR. YATES 48:16.5 +27.9 +4:45.7
27. 44 ESPC. GARCIA 49:00.7 +44.2 +5:29.9
28. 62 ESPN. SOLANS 49:10.7 +10.0 +5:39.9
29. 63 FRAN. CIAMIN 49:15.6 +4.9 +5:44.8
30. 65 FRAT. FOLB 49:27.6 +12.0 +5:56.8
31. 89 ECUM. NAVAS 49:40.3 +12.7 +6:09.5
32. 21 FRAJ. RAOUX 50:17.1 +36.8 +6:46.3
33. 64 DEUJ. TANNERT 50:17.7 +0.6 +6:46.9
34. 61 FRAR. ASTIER 50:44.5 +26.8 +7:13.7
35. 87 IRLE. BOLAND 50:47.4 +2.9 +7:16.6
36. 90 ESPJ. SOLANS 51:18.6 +31.2 +7:47.8
37. 93 ESPF. MACIAS 51:31.8 +13.2 +8:01.0
38. 92 ESPJ. PELAEZ 52:26.0 +54.2 +8:55.2
39. 95 ANDM. BESOLI 52:31.1 +5.1 +9:00.3
40. 43 GBRJ. ARMSTRONG 52:42.2 +11.1 +9:11.4
41. 91 ESPJ. FONT 53:09.8 +27.6 +9:39.0
42. 96 SWEM. ANDERSSON 53:13.7 +3.9 +9:42.9
43. 22 GRCJ. SERDERIDIS 53:15.2 +1.5 +9:44.4
44. 66 SWED. RADSTRÖM 54:00.3 +45.1 +10:29.5
45. 94 ESPG. SOSA 54:01.0 +0.7 +10:30.2
46. 104 ESPR. ROZADA 54:22.8 +21.8 +10:52.0
47. 39 FRAY. BONATO 54:37.2 +14.4 +11:06.4
48. 107 ESPS. FRANCOLI 55:10.4 +33.2 +11:39.6
49. 100 ESPJ. DOMENECH 55:19.2 +8.8 +11:48.4
50. 105 ESPJ. BASSAS 55:23.4 +4.2 +11:52.6
51. 106 ESPA. VILA 56:00.9 +37.5 +12:30.1
52. 109 ESPA. SERRATOSA 56:11.8 +10.9 +12:41.0
53. 102 DEUR. KUHN 57:00.4 +48.6 +13:29.6
54. 97 ITAG. TAVELLI 57:34.1 +33.7 +14:03.3
55. 110 ESPM. PARADELL 57:44.7 +10.6 +14:13.9
56. 101 ESPZ. ESTEBAN 58:12.2 +27.5 +14:41.4
57. 98 FRAJ. GUIBERT 58:42.5 +30.3 +15:11.7
58. 112 ESPP. SUAREZ 58:47.8 +5.3 +15:17.0
59. 99 FRAP. GOMEZ 59:41.6 +53.8 +16:10.8
60. 114 ESPE. SANS 1:03:28.7 +3:47.1 +19:57.9
61. 108 ESPJ. SALINAS 1:12:31.7 +9:03.0 +29:00.9